Location: ????????
(55.6189°N, 38.3031°E)
Time: 06:44:42
(UTC+00:00)

PAYLOAD A - Pass Details

Date: 15 November 2019
Orbit: 693 x 831 km, 98.3° (Epoch: 10 December)

Event Time Altitude Azimuth Distance (km) Brightness Sun altitude
Rises 02:04:17 0° 15° (NNE) 3,292 7.5 -24.5°
Reaches altitude 10° 02:06:35 10° 15° (NNE) 2,378 6.7 -24.2°
Maximum altitude 02:11:53 88° 289° (WNW) 822 4.0 -23.4°
Enters shadow 02:17:18 10° 199° (SSW) 2,424 6.4 -22.7°
